Wind_Speed
30 33 45 48 45 28 28 23 22 13 26 29 36 38 33 31 33 33 31 32 33 29 22 25 29 23 28 25 25 24 22 19 16 14 13 12 13 11 10 7 5 2 4 4
24 37 41 34 41 33 23 23 19 20 18 28 31 37 33 39 38 38 34 33 33 32 28 31 30 30 28 29 26 24 20 18 15 15 15 15 14 14 11 9 8 9 12 8
32 24 33 29 31 41 33 24 19 8 18 29 22 33 39 37 36 39 42 42 39 32 31 36 33 33 32 31 26 23 20 17 15 14 15 15 16 13 9 9 9 13 13 7
26 25 12 32 29 28 32 35 16 16 22 18 26 15 36 42 40 42 42 44 40 34 38 38 36 33 31 29 28 25 22 18 15 12 15 17 17 15 10 11 12 15 15 11
20 26 29 17 28 32 22 26 30 18 10 15 23 11 30 45 47 46 45 44 40 38 39 39 35 30 31 31 28 26 25 20 16 13 15 14 13 12 9 10 12 15 17 15
21 17 13 24 21 17 21 17 18 29 16 8 19 21 20 46 50 47 47 45 43 40 39 39 36 34 34 32 29 26 24 20 19 15 13 12 11 9 8 6 8 11 13 11
17 16 22 13 23 21 22 24 10 9 8 9 21 18 15 34 44 42 46 47 46 40 39 43 42 38 34 32 30 28 27 25 20 17 15 13 12 12 9 8 8 8 8 7
17 15 21 16 25 22 33 33 13 18 15 17 15 13 19 17 34 34 39 41 43 43 41 42 43 39 34 33 30 28 27 24 22 18 17 16 15 14 12 10 9 9 7 7
7 14 17 26 22 22 28 27 23 15 9 13 15 9 18 28 24 39 37 45 49 45 35 41 43 40 36 32 30 27 26 24 23 21 19 18 17 16 14 14 12 11 9 8
4 4 23 29 22 23 32 36 17 8 8 9 9 19 14 31 26 36 45 50 45 37 37 40 42 39 38 34 31 27 26 24 24 24 22 21 19 18 18 16 14 13 12 10
5 7 7 18 25 23 20 27 22 13 5 7 6 16 21 31 34 33 45 44 37 36 39 39 38 37 36 34 30 30 29 29 29 28 25 22 20 18 19 17 15 15 14 13
3 7 6 24 22 29 29 27 37 17 13 9 2 3 23 23 28 30 36 40 36 33 36 35 33 34 34 31 31 32 33 32 29 28 27 24 21 20 20 18 17 16 17 16
15 3 4 8 11 23 28 29 34 28 18 13 1 5 28 29 27 32 32 32 33 34 35 34 32 31 30 30 29 29 31 34 34 32 30 26 23 22 22 19 18 17 17 17
11 6 4 5 12 16 21 34 31 29 19 21 12 8 21 30 34 33 36 36 33 31 34 31 32 30 27 28 26 24 26 33 34 34 32 27 25 25 23 21 21 18 18 17
18 3 4 9 10 10 16 30 34 31 26 24 19 13 16 22 32 35 36 32 31 33 31 30 30 31 29 29 26 21 25 30 32 34 33 29 27 28 26 25 22 20 19 18
19 9 7 9 8 15 16 17 25 27 24 15 28 21 15 17 16 18 28 30 27 27 25 28 29 33 33 29 25 22 25 28 29 33 31 30 30 30 28 26 23 20 19 18
17 16 8 8 12 14 11 7 14 17 19 22 29 15 20 19 16 18 17 24 26 26 26 25 26 31 34 30 25 25 23 26 28 28 29 30 30 29 27 26 23 20 19 18
14 16 8 2 6 5 13 18 13 18 17 21 20 21 23 20 20 20 17 20 25 27 29 30 29 28 33 35 31 29 27 28 27 25 23 24 24 24 25 25 23 21 20 19
3 7 6 5 9 20 15 6 11 20 18 17 15 16 21 17 17 15 13 14 19 24 28 31 32 32 37 36 33 32 28 31 29 27 22 20 23 23 23 23 22 21 20 20
10 12 10 10 5 6 25 3 19 22 16 17 19 13 18 25 18 9 7 8 10 12 20 26 30 35 38 34 32 33 31 29 29 26 23 23 21 22 21 21 22 22 21 22
9 11 17 17 7 17 19 11 12 6 6 12 17 19 20 18 16 19 21 17 8 11 12 15 27 20 27 25 28 30 31 31 30 29 26 25 25 22 21 23 25 24 23 24
17 8 12 13 11 9 34 26 14 10 2 7 11 14 15 15 13 14 17 24 23 17 15 26 16 17 18 25 28 29 30 29 30 29 28 26 26 26 25 24 26 26 26 25
26 26 27 16 23 24 28 27 16 14 9 6 7 7 9 11 11 11 13 14 17 26 21 17 19 15 17 23 19 22 25 28 31 31 29 28 28 29 27 25 26 26 26 26
28 35 28 14 23 29 28 24 22 13 12 7 7 6 3 2 3 6 10 9 9 18 26 29 25 23 24 23 26 26 25 26 26 27 29 30 31 30 29 28 27 28 28 27
26 27 27 26 25 21 26 30 25 16 10 7 6 8 6 3 3 3 5 8 8 7 12 19 24 31 35 28 19 23 21 23 25 28 29 30 31 31 30 28 27 27 26 26
24 24 26 23 23 26 27 26 23 19 13 7 4 9 10 9 7 6 6 9 8 7 7 11 13 23 35 38 39 32 31 27 28 28 29 31 31 30 29 28 28 28 27 27
Wind_Direction
217 212 212 216 215 205 207 214 219 226 212 214 208 207 205 209 210 209 209 215 215 215 205 199 193 198 208 183 193 198 202 201 199 207 204 202 196 190 178 175 169 182 185 172
214 222 225 221 214 200 203 205 220 227 225 209 212 205 217 210 208 202 204 207 212 214 206 201 197 198 189 195 196 198 192 188 193 201 204 198 185 180 191 209 223 211 191 173
226 227 229 217 215 210 207 205 207 219 203 203 210 205 209 205 204 207 209 209 212 212 205 198 196 198 198 198 196 186 181 185 192 201 201 194 185 190 213 225 224 214 201 188
228 206 196 217 218 211 214 209 186 202 202 195 200 204 210 210 208 211 211 208 210 204 199 197 196 196 193 197 189 186 189 189 188 182 182 184 194 211 250 247 227 220 220 236
218 214 219 216 214 221 219 216 199 195 196 212 200 219 210 207 210 208 208 205 207 202 199 196 197 193 197 194 190 191 194 192 184 182 180 184 201 220 246 237 223 222 230 244
235 197 203 239 223 215 199 194 205 222 239 259 216 208 208 205 210 210 204 204 201 198 200 198 195 194 193 194 195 199 201 194 193 191 185 185 192 198 205 188 197 213 222 225
224 215 219 232 211 216 189 176 155 186 197 224 216 210 212 211 208 209 203 200 199 198 201 200 191 193 194 195 198 202 206 204 200 199 197 193 195 194 188 182 173 180 191 205
211 221 206 196 193 180 189 182 173 172 208 204 215 217 214 205 206 210 207 202 201 206 203 202 199 195 194 198 202 206 209 208 205 205 205 202 202 202 199 201 190 194 200 215
208 221 211 201 195 190 186 199 190 191 192 173 205 218 206 207 195 202 200 202 205 210 205 199 197 196 197 201 204 205 209 209 213 210 213 210 210 210 213 217 212 215 220 235
178 254 201 196 200 198 191 186 203 218 163 189 192 196 189 192 192 197 202 204 210 210 205 201 201 201 203 206 208 210 211 214 218 213 214 215 215 217 221 224 226 233 236 250
202 209 187 192 198 187 184 197 209 207 212 204 170 209 202 199 196 200 200 208 209 207 203 202 202 202 207 211 209 214 214 216 216 211 214 217 218 224 229 230 235 241 242 249
97 221 218 196 189 203 195 195 200 198 197 211 227 163 190 197 207 205 210 210 210 203 202 206 204 205 208 213 214 218 218 220 219 219 215 216 220 226 233 235 239 242 242 247
345 225 241 171 181 196 204 208 204 208 208 201 185 156 187 190 198 203 202 205 204 205 207 205 205 209 211 216 219 219 221 220 219 218 216 220 222 229 234 236 242 243 243 243
347 228 245 194 162 168 190 206 204 196 201 199 216 153 180 194 197 198 202 210 215 208 206 209 209 210 212 214 217 220 223 220 219 214 216 218 225 230 234 234 241 243 241 240
353 236 262 205 172 170 181 196 208 203 201 191 198 157 143 179 205 208 203 201 211 217 213 207 209 210 208 208 211 218 219 214 215 211 216 221 228 229 232 233 238 242 239 240
345 331 351 94 146 162 169 183 194 201 203 200 194 167 138 135 156 182 206 208 202 198 203 207 210 201 201 206 210 212 203 208 211 211 218 223 226 228 229 231 235 237 237 240
328 347 6 128 116 131 96 39 156 160 182 183 176 157 140 137 157 179 179 197 203 198 197 201 202 197 199 203 209 206 202 208 210 207 210 218 225 226 227 229 232 233 235 235
292 320 357 299 143 104 120 94 124 143 127 144 153 148 154 154 150 160 177 191 199 206 209 207 200 196 200 205 200 198 203 201 200 204 208 214 216 219 224 227 229 229 231 230
293 6 357 349 70 119 111 85 116 107 95 108 125 159 158 158 152 158 152 166 187 203 214 213 213 202 201 205 203 203 201 204 203 208 212 219 219 223 227 226 228 230 230 228
46 34 26 14 42 58 0 351 147 122 66 88 95 127 155 181 196 189 173 188 178 180 185 188 188 192 196 202 204 205 206 208 212 217 214 222 226 226 228 226 227 229 227 225
21 12 19 24 85 34 30 115 131 87 39 82 86 105 145 161 159 189 220 243 222 209 184 173 192 183 189 199 205 204 209 215 218 221 220 218 224 229 228 225 224 227 227 229
40 27 24 33 47 30 33 57 79 68 95 74 84 94 108 139 147 158 178 203 228 239 204 198 232 198 191 202 208 209 211 211 213 216 219 222 227 231 229 226 224 226 230 234
45 67 70 76 66 46 40 50 65 74 68 52 66 86 104 120 127 146 156 172 194 212 242 225 203 197 210 215 199 200 206 213 215 220 222 224 225 229 229 227 227 232 235 239
60 64 64 60 45 40 33 46 54 63 63 48 31 39 65 112 149 154 157 154 166 201 213 232 236 229 233 203 201 197 205 207 214 219 221 225 225 230 227 228 230 234 238 243
45 49 50 49 44 37 29 32 31 38 53 41 349 344 353 319 292 246 220 188 177 179 206 209 218 222 213 224 228 214 213 215 218 221 223 224 226 229 227 231 237 242 247 250
32 31 36 31 25 25 20 19 25 25 30 50 14 331 319 319 296 281 270 254 241 221 211 220 214 217 215 218 216 221 235 219 220 221 224 222 223 225 228 233 238 242 247 247
Height
3010 3011 3006 3008 3017 3028 3033 3040 3045 3050 3056 3060 3063 3072 3078 3084 3091 3094 3098 3102 3105 3110 3113 3119 3124 3127 3112 3134 3142 3148 3154 3158 3161 3164 3165 3167 3169 3171 3173 3175 3176 3177 3178 3179
3007 3001 3007 3011 3018 3024 3030 3036 3042 3048 3052 3056 3059 3064 3070 3075 3081 3088 3093 3096 3099 3104 3108 3113 3119 3124 3128 3133 3139 3145 3150 3155 3158 3160 3162 3164 3166 3169 3171 3173 3174 3175 3177 3178
2998 3000 3004 3009 3014 3020 3025 3030 3037 3043 3047 3051 3056 3063 3062 3068 3075 3079 3082 3088 3092 3098 3103 3108 3114 3119 3125 3130 3136 3142 3147 3152 3155 3157 3159 3162 3164 3167 3169 3170 3172 3173 3175 3177
2994 2999 3000 3004 3009 3015 3020 3028 3035 3040 3043 3044 3049 3052 3054 3060 3065 3069 3075 3080 3086 3093 3097 3105 3110 3115 3123 3129 3134 3140 3145 3149 3153 3154 3157 3159 3162 3165 3166 3168 3169 3171 3173 3175
2991 2992 2997 3001 3003 3010 3015 3022 3031 3035 3040 3042 3042 3046 3045 3052 3055 3060 3066 3074 3080 3088 3094 3100 3107 3113 3122 3127 3132 3137 3142 3146 3149 3153 3155 3157 3159 3162 3163 3164 3166 3168 3171 3173
2988 2991 2994 2996 3002 3006 3014 3022 3028 3034 3039 3038 3035 3039 3036 3037 3045 3056 3062 3068 3076 3083 3090 3097 3104 3111 3118 3123 3129 3134 3139 3143 3147 3150 3153 3155 3157 3159 3162 3162 3163 3166 3169 3171
2985 2986 2988 2993 2997 3004 3009 3016 3023 3033 3035 3026 3029 3034 3029 3034 3042 3050 3057 3063 3071 3079 3085 3091 3097 3104 3111 3118 3124 3130 3135 3140 3144 3147 3150 3153 3156 3158 3160 3162 3163 3165 3167 3169
2978 2983 2982 2987 2991 2994 2999 3006 3008 3014 3014 3018 3026 3023 3023 3031 3040 3049 3056 3064 3071 3074 3080 3087 3094 3101 3108 3114 3120 3125 3131 3136 3140 3144 3148 3150 3153 3156 3159 3161 3162 3164 3165 3166
2973 2975 2978 2983 2988 2993 2998 3004 3008 3009 3014 3019 3019 3022 3025 3029 3034 3042 3049 3054 3061 3069 3077 3083 3089 3098 3104 3110 3116 3122 3126 3131 3136 3141 3145 3148 3151 3154 3157 3159 3160 3162 3163 3164
2972 2972 2973 2978 2985 2990 2992 2998 3004 3006 3010 3012 3014 3017 3017 3023 3030 3037 3042 3049 3057 3066 3073 3079 3085 3094 3100 3106 3112 3118 3121 3127 3132 3137 3141 3144 3147 3150 3154 3156 3157 3159 3161 3162
2970 2970 2970 2974 2978 2983 2989 2994 2998 3004 3007 3005 3012 3014 3017 3023 3028 3034 3040 3046 3054 3060 3067 3075 3081 3088 3094 3101 3107 3112 3117 3122 3127 3132 3136 3140 3143 3147 3150 3152 3154 3156 3158 3159
2967 2967 2966 2970 2975 2981 2985 2988 2992 2997 3002 3007 3008 3010 3015 3021 3027 3033 3037 3044 3051 3058 3065 3071 3077 3083 3090 3096 3101 3106 3111 3117 3122 3128 3132 3135 3139 3143 3146 3148 3150 3152 3154 3155
2965 2966 2965 2968 2975 2977 2982 2987 2991 2996 3003 3005 3008 3010 3010 3015 3022 3030 3035 3040 3047 3054 3059 3065 3072 3078 3084 3089 3095 3100 3105 3111 3117 3122 3127 3130 3135 3140 3142 3144 3146 3148 3150 3152
2965 2964 2965 2964 2968 2972 2978 2983 2988 2993 2998 3003 3007 3007 3007 3012 3016 3022 3029 3036 3043 3048 3053 3060 3066 3073 3080 3085 3090 3095 3099 3104 3110 3115 3120 3125 3131 3135 3137 3139 3141 3144 3146 3147
2963 2962 2962 2963 2966 2969 2973 2979 2984 2989 2994 2999 3006 3007 3006 3008 3013 3018 3024 3030 3035 3042 3048 3055 3062 3068 3074 3079 3085 3089 3093 3098 3104 3109 3115 3121 3125 3128 3131 3134 3136 3139 3141 3143
2965 2963 2960 2963 2964 2968 2971 2976 2983 2988 2993 2997 3004 3005 3006 3008 3011 3015 3020 3026 3030 3036 3044 3051 3056 3062 3069 3075 3080 3083 3088 3093 3098 3104 3110 3115 3119 3122 3125 3128 3131 3133 3135 3138
2967 2965 2962 2963 2965 2969 2976 2981 2982 2985 2989 2994 2998 3002 3005 3008 3011 3014 3017 3022 3027 3032 3038 3044 3052 3059 3065 3071 3076 3080 3085 3089 3094 3100 3105 3109 3113 3116 3120 3122 3125 3128 3131 3133
2969 2966 2965 2964 2965 2971 2985 2984 2985 2985 2988 2992 2997 3000 3004 3008 3010 3013 3016 3020 3024 3029 3034 3040 3045 3052 3058 3064 3069 3076 3082 3086 3091 3096 3101 3104 3107 3111 3114 3117 3120 3123 3125 3128
2971 2970 2968 2968 2966 2978 2983 2986 2987 2987 2992 2993 2996 2999 3001 3007 3011 3013 3016 3019 3022 3026 3031 3035 3041 3047 3052 3057 3066 3071 3077 3082 3087 3092 3096 3100 3103 3106 3109 3112 3115 3119 3121 3123
2973 2972 2972 2969 2970 2980 2990 2985 2986 2986 2994 2995 2995 2997 3000 3004 3011 3015 3018 3020 3023 3026 3027 3031 3035 3040 3045 3050 3061 3068 3072 3078 3082 3087 3092 3096 3099 3102 3105 3108 3111 3114 3116 3119
2976 2974 2974 2975 2978 2989 2987 2982 2987 2992 3004 2996 2996 2998 3002 3005 3009 3012 3016 3020 3022 3026 3027 3029 3033 3040 3043 3047 3056 3062 3067 3073 3078 3082 3087 3091 3095 3098 3100 3103 3105 3108 3111 3113
2984 2983 2984 2984 2985 2996 2988 2985 2989 2998 2998 2998 2998 2999 3001 3005 3008 3011 3015 3018 3023 3027 3028 3031 3034 3037 3041 3047 3052 3057 3062 3068 3073 3077 3082 3086 3090 3092 3094 3097 3099 3102 3104 3107
2993 2996 2995 2998 3005 3005 2999 2996 2997 2998 2998 2999 2999 3000 3002 3005 3008 3010 3013 3016 3020 3024 3028 3030 3035 3038 3042 3049 3049 3054 3060 3062 3066 3071 3076 3080 3083 3085 3088 3090 3094 3096 3098 3101
3003 3002 3002 3002 3006 3005 3004 2999 2999 2999 2999 2999 2999 3000 3002 3004 3007 3010 3012 3014 3017 3019 3021 3026 3030 3035 3040 3044 3048 3051 3055 3057 3060 3064 3069 3072 3075 3078 3081 3084 3087 3089 3092 3095
3009 3007 3007 3010 3011 3011 3007 3002 2999 3001 2999 2997 2998 2999 3001 3003 3005 3008 3010 3012 3014 3016 3019 3022 3024 3028 3033 3038 3040 3045 3048 3051 3054 3058 3062 3065 3068 3072 3075 3078 3081 3084 3087 3090
3014 3013 3013 3015 3015 3012 3009 3007 3005 3003 3000 2999 3000 2999 2999 3001 3002 3004 3007 3009 3011 3014 3016 3018 3020 3022 3026 3031 3035 3043 3045 3045 3048 3051 3055 3058 3062 3065 3069 3072 3075 3078 3080 3082